Regional Weather Roundup
Issued by NWS

Home | Current Version | Previous Version | Text Only | Print | Product List | Glossary Off
Versions: 1 2 3 4 5 6 7 8 9 10 11 12 13 14 15 16 17 18 19 20 21 22 23 24 25 26 27

000
ASUS45 KBOU 140310
RWRCO

WEATHER ROUNDUP FOR COLORADO
NATIONAL WEATHER SERVICE DENVER/BOULDER CO
800 PM MST WED DEC 13 2017

NOTE: "FAIR" INDICATES FEW OR NO CLOUDS BELOW 12000 FEET WITH NO
SIGNIFICANT WEATHER AND/OR OBSTRUCTIONS TO VISIBILITY.

COZ001>005-013-030-031-140400-
...NORTHWEST COLORADO...

CITY           SKY/WX    TMP DP  RH WIND       PRES   REMARKS
CRAIG          CLOUDY    34  22  61 W7        30.10R WCI  28
HAYDEN         CLOUDY    33  21  61 W9        30.09R WCI  25
MEEKER         CLOUDY    35  15  44 NE10      30.06R WCI  27
RABBIT EARS PA CLOUDY    23   9  54 N5        30.09S WCI  17
STEAMBOAT SPGS CLOUDY    32  20  60 SW6       30.07R WCI  27
WALDEN         CLOUDY    25  21  86 N6        30.11S WCI  18
$$

COZ006>008-011-140400-
...WEST CENTRAL VALLEYS...

CITY           SKY/WX    TMP DP  RH WIND       PRES   REMARKS
GRAND JUNCTION FAIR      37  14  38 N5        30.03S
MONTROSE       CLOUDY    38  13  35 S3        30.05R
EAGLE          CLOUDY    30  19  63 NW5       30.08S WCI  25
RIFLE          MOCLDY    33  15  47 CALM      30.03F
DELTA          MOCLDY    39  12  33 NE6       30.02S
NUCLA          CLOUDY    41   5  22 SE6       30.05S
$$

COZ017>023-064>068-140400-
...SOUTHWEST COLORADO...

CITY           SKY/WX    TMP DP  RH WIND       PRES   REMARKS
DURANGO        FAIR      31   6  35 CALM      30.02F
CORTEZ         FAIR      30   5  34 CALM      30.04S
PAGOSA SPRINGS MOCLDY    31   2  29 CALM      30.03F
TELLURIDE      CLOUDY    37   0  21 CALM      30.10R
WOLF CREEK PAS CLOUDY    27  -2  28 S14       30.17F WCI  15
$$

COZ009-010-012-014-032>034-037-058>063-140400-
...CENTRAL COLORADO...

CITY           SKY/WX    TMP DP  RH WIND       PRES   REMARKS
ASPEN          CLOUDY    37  11  34 SE6       30.03F
BUENA VISTA    CLOUDY    37   5  25 E5        30.02R
COPPER MTN     NOT AVBL
BERTHOUD PASS  CLOUDY    16   5  62 NW12G29   30.11S WCI   3
COTTONWOOD PAS CLOUDY    43   5  21 E5        30.05R
GUNNISON       FAIR      31  15  52 S5        30.03R WCI  26
KREMMLING      CLOUDY    34  25  69 S5        30.09F WCI  30
LEADVILLE      CLOUDY    31   7  36 W3        30.05F
MONARCH PASS   CLOUDY    28   3  34 W23       30.20S WCI  14
SALIDA         CLOUDY    40   5  23 SE16G23   30.07R
SUNLIGHT       CLOUDY    28   5  37 W5        30.13F WCI  23
WILKERSON PASS CLOUDY    23   3  42 SE8       30.12S WCI  14
$$

COZ069>075-140400-
...SAN LUIS VALLEY/SANGRE DE CRISTO MOUNTAINS...

CITY           SKY/WX    TMP DP  RH WIND       PRES   REMARKS
ALAMOSA        CLOUDY    32   6  33 CALM      29.99F
DEL NORTE      CLOUDY    34   6  30 W5        30.00F WCI  30
LA VETA PASS   CLOUDY    34   1  25 SW9         N/A  WCI  26
SAGUACHE       MOCLDY    32   7  34 CALM      30.01S
$$

COZ035-036-038>040-140400-
...NORTHERN COLORADO FRONT RANGE...

CITY           SKY/WX    TMP DP  RH WIND       PRES   REMARKS
DENVER INTL AP CLOUDY    38  12  34 E10       30.08R
DMNS CITY PARK NOT AVBL
AURORA         CLOUDY    39  12  33 E9        30.08R
FRONT RANGE AP NOT AVBL
ERIE MUNI ARPT CLOUDY    43  11  27 NE5       30.15R
BOULDER MUN AP CLOUDY    43  14  31 CALM      30.10R
CENTENNIAL     CLOUDY    39  13  34 E7        30.07R
BROOMFIELD     MOCLDY    43  12  28 NE5       30.09R
FORT COLLINS   CLOUDY    42  14  32 CALM      30.10R
LONGMONT       CLOUDY    44  15  30 CALM      30.12R
$$

COZ041-046-047-076>085-087-088-140400-
...PIKES PEAK/PALMER DIVIDE AND SOUTHERN FOOTHILLS...

CITY           SKY/WX    TMP DP  RH WIND       PRES   REMARKS
COLO. SPRINGS  CLOUDY    37   9  31 N8        30.08R
A. F. ACADEMY  CLOUDY    31   6  33 N7        30.06R WCI  25
SCHRIEVER AFB  CLOUDY    37   7  29 N5        30.07R
CHEYENNE MTN   CLOUDY    39   6  25 N7        30.01R
ELLICOTT         N/A    N/A N/A N/A E8        30.05S
FALCON         CLOUDY    35   8  32 N7        30.08R WCI  29
FORT CARSON    CLOUDY    35   8  31 NE6       30.04R WCI  30
LIMON          CLOUDY    38  13  35 N9        30.07R
MONUMENT HILL  MOCLDY    32  10  40 E5        30.09R WCI  27
CANON CITY     CLOUDY    41  12  30 NE5       30.02F
WALSENBURG     CLOUDY    39  12  33 CALM      30.03S
TRINIDAD       MOCLDY    33  11  39 W5        30.03F WCI  29
$$

COZ042>045-048>051-090-091-140400-
...NORTHEAST COLORADO...

CITY           SKY/WX    TMP DP  RH WIND       PRES   REMARKS
GREELEY ARPT   MOCLDY    41  14  33 NE3       30.09R
AKRON          CLOUDY    39  13  34 N6        30.06R
BURLINGTON     CLOUDY    41  15  35 N8        30.05S
WRAY           CLOUDY    36  16  44 NW5       30.06R
YUMA           CLOUDY    37  14  38 N3        30.06R
STERLING       CLOUDY    43  18  36 N7        30.06R
HOLYOKE        FAIR      39  18  41 N8        30.05R
FORT MORGAN    CLOUDY    40  11  30 N3        30.08R
$$

COZ086-089-092>099-140400-
...SOUTHEAST COLORADO...

CITY           SKY/WX    TMP DP  RH WIND       PRES   REMARKS
PUEBLO         FAIR      39  10  30 NE3       30.02S
LA JUNTA       FAIR      44  14  29 NE8       30.03R
LAMAR          FAIR      45  13  27 E5        30.02R
SPRINGFIELD      N/A     38  15  39 NW5       30.03S
$$




USA.gov is the U.S. government's official web portal to all federal, state and local government web resources and services.